Change the Weather History Date:

Thursday, December 13, 2012

  Actual Average Record
Temperature  
Mean Temperature 42 °F -  
Max Temperature 44 °F 44 °F 53 °F (1998)
Min Temperature 39 °F 36 °F 23 °F (2000)
Degree Days  
Heating Degree Days 24    
Moisture  
Dew Point 38 °F    
Average Humidity 87    
Maximum Humidity 93    
Minimum Humidity 79    
Precipitation  
Precipitation 0.00 in - - ()
Sea Level Pressure  
Sea Level Pressure 29.94 in    
Wind  
Wind Speed 5 mph (ESE)    
Max Wind Speed 16 mph    
Max Gust Speed -    
Visibility 10 miles    
Events Rain    
Averages and records for this station are not official NWS values.
T = Trace of Precipitation, MM = Missing Value Source: NWS Daily Summary

Daily Weather History Graph

Daily Weather History Graph

Search for Another Location

Airport or City:

Trip Planner

Search our weather history database for the weather conditions in past years. The results will help you decide how hot, cold, wet, or windy it might be!

Date:

Astronomy

Dec. 13, 2012 Rise Set
Actual Time 7:56 AM PST 4:16 PM PST
Civil Twilight 7:19 AM PST 4:53 PM PST
Nautical Twilight 6:39 AM PST 5:33 PM PST
Astronomical Twilight 6:01 AM PST 6:11 PM PST
Moon 8:08 AM PST (12/13) 5:07 PM PST (12/13)
Length of Visible Light 9h 34m
Length of Day
8h 20m
New Moon, 0% of the Moon is Illuminated
Dec 13
New Moon
Dec 19
First Quarter
Dec 28
Full
Jan 4
Last Quarter
Jan 11
New

Hourly Weather History & Observations

Time (PST) Temp. Windchill Dew Point Humidity Pressure Visibility Wind Dir Wind Speed Gust Speed Precip Events Conditions
12:53 AM 41.0 °F 39.0 °F 37.0 °F 86% 30.03 in 10.0 mi NNW 3.5 mph - N/A   Overcast
1:53 AM 39.0 °F - 36.0 °F 89% 30.04 in 10.0 mi Calm Calm - N/A   Overcast
2:53 AM 39.0 °F - 37.0 °F 93% 30.05 in 10.0 mi Calm Calm - N/A   Overcast
3:46 AM 39.2 °F - 37.4 °F 93% 30.05 in 10.0 mi Calm Calm - 0.00 in Rain Light Rain
3:53 AM 39.9 °F - 37.9 °F 93% 30.05 in 9.0 mi Calm Calm - 0.00 in Rain Light Rain
4:11 AM 39.2 °F - 37.4 °F 93% 30.04 in 10.0 mi Calm Calm - 0.00 in   Overcast
4:53 AM 39.9 °F - 37.9 °F 93% 30.03 in 10.0 mi Calm Calm - 0.00 in   Overcast
5:53 AM 41.0 °F - 37.9 °F 89% 30.03 in 10.0 mi Calm Calm - N/A   Overcast
6:25 AM 41.0 °F - 37.4 °F 87% 30.02 in 10.0 mi Calm Calm - N/A   Overcast
6:40 AM 42.8 °F 41.1 °F 39.2 °F 87% 30.02 in 10.0 mi East 3.5 mph - N/A   Overcast
6:53 AM 42.1 °F 37.1 °F 39.0 °F 89% 30.02 in 10.0 mi ESE 8.1 mph - N/A   Overcast
7:53 AM 42.1 °F 38.4 °F 39.0 °F 89% 30.01 in 10.0 mi ESE 5.8 mph - N/A   Overcast
8:53 AM 42.1 °F 36.6 °F 39.0 °F 89% 29.99 in 10.0 mi SE 9.2 mph - N/A   Overcast
9:53 AM 43.0 °F 37.7 °F 37.9 °F 82% 29.99 in 10.0 mi ESE 9.2 mph - N/A   Overcast
10:53 AM 44.1 °F 38.6 °F 37.9 °F 79% 29.97 in 10.0 mi SE 10.4 mph - N/A   Scattered Clouds
11:53 AM 43.0 °F 36.8 °F 37.9 °F 82% 29.95 in 10.0 mi ESE 11.5 mph - N/A   Overcast
12:50 PM 42.8 °F 36.6 °F 37.4 °F 81% 29.91 in 10.0 mi ESE 11.5 mph - N/A   Overcast
12:53 PM 43.0 °F 37.7 °F 37.9 °F 82% 29.91 in 10.0 mi East 9.2 mph - N/A   Overcast
1:53 PM 43.0 °F 36.4 °F 37.9 °F 82% 29.88 in 10.0 mi ESE 12.7 mph - N/A   Overcast
5:53 PM 43.0 °F 36.4 °F 37.9 °F 82% 29.82 in 9.0 mi SE 12.7 mph - 0.00 in Rain Light Rain
6:53 PM 43.0 °F 36.8 °F 39.0 °F 86% 29.81 in 8.0 mi ESE 11.5 mph - 0.00 in Rain Light Rain
7:53 PM 42.1 °F 34.5 °F 39.0 °F 89% 29.80 in 10.0 mi ESE 15.0 mph - 0.00 in Rain Light Rain
8:53 PM 42.1 °F 34.9 °F 39.0 °F 89% 29.79 in 10.0 mi ESE 13.8 mph - 0.00 in Rain Light Rain
10:32 PM 42.8 °F 36.2 °F 39.2 °F 87% 29.78 in 9.0 mi SE 12.7 mph - 0.00 in Rain Light Rain
10:53 PM 42.1 °F 34.2 °F 39.0 °F 89% 29.78 in 8.0 mi ESE 16.1 mph - 0.00 in Rain Light Rain
11:53 PM 42.1 °F 35.7 °F 39.0 °F 89% 29.78 in 10.0 mi ESE 11.5 mph - 0.00 in Rain Light Rain